Regional Weather Roundup
Issued by NWS Pendleton, OR

Home | Current Version | Previous Version | Text Only | Print | Product List | Glossary On
Versions: 1 2 3 4 5 6 7 8 9 10 11 12 13 14 15 16 17 18 19 20 21 22 23 24 25 26 27 28 29 30 31 32 33 34 35 36 37 38 39 40 41 42 43 44 45 46 47 48 49 50
000
ASUS46 KPDT 211710
RWRPDT
PENDLETON REGIONAL WEATHER ROUNDUP
NATIONAL WEATHER SERVICE PENDLETON OREGON
1000 AM PDT FRI JUL 21 2017

NOTE: FAIR INDICATES FEW OR NO CLOUDS BELOW 12,000 FEET WITH NO
SIGNIFICANT WEATHER AND/OR OBSTRUCTIONS TO VISIBILITY.

# INDICATES UNOFFICIAL STATION AND DATA

WAZ520-211810-
EAST SLOPES OF WASHINGTON CASCADES

CITY            SKY/WX      TMP DP  RH  WIND    PRES   REMARKS
#BULLFROG       N/A         64  47  54  W3      N/A
#CLE ELUM HS    N/A         66  47  50  CALM    30.05F
#CLE ELUM LAKE  N/A         66  48  52  CALM    30.22S
#EASTON DOT     N/A         62  46  56  N2      N/A
#ELK HTS DOT    N/A         66  65  97  N3      N/A
#GLENWOOD       N/A         61  52  72  CALM    30.11S
#NELSON 3SW     N/A         61  49  65  CALM    30.25F
#NILE           N/A         65  45  48  W2      29.36F
#TEANAWAY 4NE   N/A         65  51  60  CALM    N/A
#TROUT LAKE 1NE N/A         63  51  65  CALM    30.09F
#TROUT LAKE 1E  N/A         64  50  60  CALM    30.16F
$$

WAZ521-211810-
SIMCOE HIGHLANDS

CITY            SKY/WX      TMP DP  RH  WIND    PRES   REMARKS
#BICKLETON HS   N/A         66  48  52  S3      30.06R
#CENTERVILLE 1SWN/A         66  49  54  W7      30.03F
#GOLDENDALE 1NE N/A         65  36  34  S3      N/A
#GOLDENDALE 4W  N/A         68  15  13  W7      30.17S
#GOODNOE HILLS  N/A         69  51  53  W13     N/A
#LYLE 6NE       N/A         64  53  67  S7      30.09F
#PITT 4SE       N/A         62  50  65  W8      30.11S
$$

WAZ026-211810-
KITTITAS VALLEY

CITY            SKY/WX      TMP DP  RH  WIND    PRES   REMARKS
ELLENSBURG AP   SUNNY       69  46  44  VRB3    30.12S
#ELLENSBURG CWU N/A         68  46  45  NW1     30.01F
#ELLENSBURG 3NE N/A         65  50  58  CALM    28.20R
#ELLENSBURG 1E  N/A         68  47  47  CALM    30.10F
#KITTITAS 3S    N/A         65  52  63  CALM    30.07S
#MANASTASH RDG  N/A         64  64  100 N2      N/A
#ROCKY CYN DOT  N/A         70  51  51  W9      N/A
#RYEGRASS DOT   N/A         62  47  58  S6      N/A
$$

WAZ027-211810-
YAKIMA VALLEY

CITY            SKY/WX      TMP DP  RH  WIND    PRES   REMARKS
SUNNYSIDE AP    N/A         66  48  52  CALM    30.11S
YAKIMA AIRPORT  SUNNY       72  46  39  CALM    30.12S
YAKIMA-VAGABOND SUNNY       71  42  35  N3      30.10S
#DONALD 2NE     N/A         78  17  10  NW3     28.96S
#GRANDVIEW      N/A         69  49  49  CALM    30.09F
#MABTON         N/A         69  53  57  CALM    30.10S
#MOXEE 2E       N/A         70  N/A N/A SW5     30.00F
#NACHES 2SW     N/A         69  48  47  W2      30.12S
#OUTLOOK DOT    N/A         69  49  49  CALM    30.08S
#PARKER DOT     N/A         70  42  36  SE6     30.10S
#TERRACE HTS    N/A         68  48  49  CALM    30.03S
#TOPPENISH      N/A         68  48  49  CALM    30.00S
#I82 S UMTANUM RN/A         68  47  47  N1      N/A
#UNION GAP DOT  N/A         69  45  42  N3      30.14S
#W YAKIMA       N/A         68  49  51  SE2     30.07S
#WHITE SWAN 5E  N/A         69  49  49  CALM    30.09S
#WILEY CITY 3W  N/A         69  42  37  CALM    30.09S
#ZILLAH DOT     N/A         70  43  38  W6      N/A
$$

WAZ028-211810-
LOWER COLUMBIA BASIN...WASHINGTON

CITY            SKY/WX      TMP DP  RH  WIND    PRES   REMARKS
HANFORD         CLOUDY      73  43  34  S2      30.10S
PASCO           SUNNY       73  48  41  SW5     30.11S
PROSSER AWOS    N/A         70  50  49  VRB3    30.14S
RICHLAND AWOS   SUNNY       74  45  35  CALM    30.10F
#BENTON CITY    N/A         71  50  47  CALM    29.99S
#CONNELL 5N     N/A         71  48  44  CALM    30.07S
#CONNELL 5NW    N/A         70  49  47  SW1     30.03S
#ELTOPIA 6NW    N/A         67  53  61  CALM    29.08S
#KAHLOTUS       N/A         69  47  45  SW2     30.06F
#KENNEWICK 3S   N/A         69  51  53  CALM    30.08F
#PATERSON       N/A         68  53  59  SW2     30.08S
#PROSSER DOT    N/A         70  47  44  W5      30.11S
#SAGEMOOR 2W    N/A         69  52  55  SE2     29.95S
#TOUCHET 2S     N/A         77  49  37  SW3     30.06F
#WEST PASCO     N/A         75  53  46  SE1     30.10F
$$

WAZ029-211810-
FOOTHILLS OF THE BLUES...WASHINGTON

CITY            SKY/WX      TMP DP  RH  WIND    PRES   REMARKS
WALLA WALLA AP  SUNNY       72  47  41  SW9     30.12F
#CLYDE 6NW      N/A         68  48  49  SW8     30.06F
#DAYTON SCHOOL  N/A         69  41  36  N3      30.13F
#DELANEY DOT    N/A         72  43  35  S6      30.12F
#LOWDEN 2SE     N/A         74  54  50  CALM    30.07F
#PLEASANT VIEW 1N/A         70  47  44  W6      30.09F
#PRESCOTT       N/A         71  52  51  SW3     30.08F
#WHITMAN COLLEGEN/A         70  49  47  SW6     30.12F
#WAITSBURG 5S   N/A         69  47  45  SW2     30.16S
#WAITSBURG 6SSE N/A         69  44  40  SE5     30.10F
#WALLA WALLA 5E N/A         73  49  43  W5      N/A
#WHITMAN MISSIONN/A         71  50  47  CALM    30.09F
$$

WAZ030-211810-
BLUE MOUNTAINS...WASHINGTON

CITY            SKY/WX      TMP DP  RH  WIND    PRES   REMARKS
#DIXIE 5SE      N/A         56  41  57  S7      30.09F
$$

ORZ009-041-WAZ024-211810-
COLUMBIA RIVER GORGE

CITY            SKY/WX      TMP DP  RH  WIND    PRES   REMARKS
HOOD RIVER AP   SUNNY       70  52  53  W9      30.13F
THE DALLES AP   SUNNY       73  53  49  NW7     30.11F
#ARLINGTON AIRPON/A         68  50  53  W10     30.09F
#CELILO DOT     N/A         74  55  51  SW2     N/A
#LYLE           N/A         68  55  63  NW5     30.11F
#MARYHILL       N/A         67  51  56  N9      N/A
#RUFUS DOT      N/A         68  N/A N/A W8      N/A
#SMITHVILLE     N/A         71  55  57  W8      30.11F

$$

ORZ510-211810-
NORTH CENTRAL OREGON

CITY            SKY/WX      TMP DP  RH  WIND    PRES   REMARKS
#ANTELOPE       N/A         65  48  54  CALM    29.93F
#CHENOWITH 1W   N/A         63  51  65  W20     N/A
#COW CYN RST AREN/A         65  42  43  SE1     N/A
#DUFUR          N/A         69  49  49  NE2     30.07S
#DUFUR 9E       N/A         63  48  58  N5      30.14S
#GRASS VALLEY 1SN/A         66  44  45  NW2     30.16S
#KENT DOT       N/A         67  42  40  SW5     N/A
#MAUPIN SCHOOL  N/A         67  53  61  CALM    30.17F
#MORO SCHOOL    N/A         65  52  63  NW3     30.13S
#SHANIKO 5WSW   N/A         65  43  45  N3      N/A
#SHANIKO 4NW    N/A         65  37  35  SW2     30.19R
#TYGH VALLEY 2NEN/A         67  50  54  CALM    30.09F
#WAPANITIA AIRPON/A         68  43  40  NE1     30.09F
#WASCO DOT      N/A         69  53  57  W6      N/A
#WASCO 5NE      N/A         67  51  56  SW5     30.08S
$$

ORZ511-211810-
CENTRAL OREGON

CITY            SKY/WX      TMP DP  RH  WIND    PRES   REMARKS
BEND AIRPORT    SUNNY       72  45  38  SW3     30.19F
MADRAS AIRPORT  SUNNY       64  45  50  NW3     30.19S
PRINEVILLE AP   SUNNY       66  45  47  N5      30.18F
REDMOND AIRPORT SUNNY       69  43  39  VRB3    30.17F
#ASHWOOD SCHOOL N/A         68  45  44  N3      30.10F
#BEND 1SW       N/A         65  40  40  CALM    N/A
#BEND-AWBREY    N/A         63  48  58  SW1     30.03F
#BEND-KIM LN    N/A         66  48  52  CALM    29.99F
#CULVER         N/A         64  50  60  CALM    29.99F
#CULVER 8W      N/A         72  41  33  E6      30.14S
#LAKE BILLY CHINN/A         66  N/A N/A N6      30.08F
#MADRAS 4S      N/A         66  15  14  CALM    N/A
#POWELL BUTTE   N/A         64  48  56  NW3     30.12F
#PRINEVILLE     N/A         67  47  49  CALM    30.14F
#PRINEVILLE 3N  N/A         64  52  65  NW2     30.13F
#WARM SPRINGS   N/A         68  46  45  CALM    29.97F

$$


ORZ509-211810-
EAST SLOPES OF OREGON CASCADES

CITY            SKY/WX      TMP DP  RH  WIND    PRES   REMARKS
SISTERS AWOS    N/A         64  43  46  CALM    30.13F
#CAMP SHERMAN   N/A         69  47  45  CALM    30.12F
#LA PINE 4NW    N/A         62  47  58  CALM    30.09F
#LAVA BUTTE DOT N/A         60  44  55  CALM    N/A
#SISTERS ODOT   N/A         67  42  40  CALM    N/A
#SISTERS 3N     N/A         66  48  52  CALM    30.10S
#SUNRIVER       N/A         62  49  62  S2      30.22F
#TUMALO 3W      N/A         64  47  54  E2      29.92F
#WANOGA BUTTE D N/A         60  23  24  W6      N/A

$$

ORZ044-211810-
LOWER COLUMBIA BASIN...OREGON

CITY            SKY/WX      TMP DP  RH  WIND    PRES   REMARKS
HERMISTON       SUNNY       73  50  44  W9      30.11S
#BOARDMAN SCHOOLN/A         71  51  49  SW2     30.09F
#BOARDMAN 8SW   N/A         70  52  53  W8      30.09S
#ECHO 8SW       N/A         72  50  46  W8      30.12R
#I-84 EX 198 DOTN/A         70  53  55  E12     N/A
#IONE SCHOOL    N/A         69  46  44  W6      30.09S
#UMATILLA       N/A         68  50  53  N7      30.02F
$$

ORZ507-211810-
NORTHERN FOOTHILLS OF THE BLUES

CITY            SKY/WX      TMP DP  RH  WIND    PRES   REMARKS
PENDLETON AIRPT SUNNY       72  45  38  W9      30.13S
#ADAMS 3WNW     N/A         70  48  46  SW7     30.08S
#ATHENA         N/A         69  49  49  CALM    30.11S
#CAYUSE         N/A         69  48  47  CALM    30.07S
#HELIX SCHOOL   N/A         67  47  49  N7      30.07F
#HELIX 3N       N/A         68  46  45  SW9     30.10F
#HOLDMAN 5SE    N/A         70  48  46  W10     30.11S
#HOLDMAN 6E     N/A         69  48  47  S10     29.88S
#M-F GROVE ELEM N/A         72  44  37  SW1     30.09F
#PENDLETON DNTN N/A         75  47  37  CALM    30.10S
#PDT SUNRIDGE   N/A         71  49  46  CALM    30.13F
#PENDLETON 7NW  N/A         74  52  46  W8      30.15S
#PILOT ROCK 1S  N/A         67  44  43  NW1     30.13F
#TUTUILLA       N/A         72  50  46  CALM    30.18F
#UMAPINE 2E     N/A         73  55  53  W1      30.08F
#WESTON SCHOOL  N/A         67  44  43  NW3     30.07S

$$

ORZ508-211810-
SOUTHERN FOOTHILLS OF THE BLUES

CITY            SKY/WX      TMP DP  RH  WIND    PRES   REMARKS
LEXINGTON       SUNNY       72  43  35  VRB5    30.16F
#AJAX           N/A         65  41  41  S5      30.28S
#CONDON 5W      N/A         63  38  39  W3      30.15S
#FOSSIL SCHOOL  N/A         68  46  45  CALM    30.09S
#HEPPNER EOC    N/A         69  42  37  N3      30.01S
#HEPPNER 4NE    N/A         66  41  40  W7      30.06S
#LEXINGTON 2SE  N/A         71  46  41  N5      30.09F
#MIKKALO        N/A         68  45  44  NW9     30.24S
#OLEX 4N        N/A         68  50  53  SW10    30.10S
#RUGGS 5NE      N/A         68  39  35  W8      30.33S
#RUGGS 2SW      N/A         69  42  37  NW6     30.08S

$$

ORZ502-503-211810-
BLUE MOUNTAINS

CITY            SKY/WX      TMP DP  RH  WIND    PRES   REMARKS
MEACHAM         SUNNY       67  30  25  VRB3    30.18S
#BATTLE MTN DOT N/A         60  36  41  S6      N/A
#GRANITE        N/A         61  43  51  CALM    29.85S
#HEPPNER 15SE   N/A         65  36  34  W5      30.01F
#LADD CYN SMT   N/A         65  43  45  NW6     N/A
#LADD CREEK ODOTN/A         63  42  46  NE7     N/A
#LONG CREEK HS  N/A         64  44  48  CALM    N/A
#N POWDER DOT   N/A         69  47  45  CALM    N/A
#PIKES PEAK     N/A         59  43  55  N5      27.99S
#TOLLGATE       N/A         59  41  51  SW2     30.05R
#TROY SCHOOL    N/A         70  47  44  CALM    29.88F
#UKIAH          N/A         61  43  51  CALM    30.01F
#WESTON 4E      N/A         64  44  48  SW1     30.03S
$$

ORZ505-211810-
JOHN DAY BASIN

CITY            SKY/WX      TMP DP  RH  WIND    PRES   REMARKS
JOHN DAY        SUNNY       69  43  39  CALM    30.19S
#JOHN DAY KJDY  N/A         69  N/A N/A W2      30.92F
#ANTELOPE 9ESE  N/A         70  47  44  NE2     N/A
#DAYVILLE SCHOOLN/A         69  44  40  CALM    30.11F
#MITCHELL       N/A         71  46  41  CALM    30.31S
#MITCHELL 8NW   N/A         65  43  45  N2      30.09S
#MONUMENT HS    N/A         70  45  41  CALM    30.09F
#MT. VERNON 5SE N/A         66  44  45  N1      30.14F
#SPRAY SCHOOL   N/A         70  N/A N/A CALM    N/A
$$

ORZ506-211810-
OCHOCO AND JOHN DAY HIGHLANDS

CITY            SKY/WX      TMP DP  RH  WIND    PRES   REMARKS
#HORSE RIDGE DO N/A         64  43  46  NW6     N/A
#IZEE 6NW       N/A         71  43  36  E1      N/A
#PAULINA ODOT   N/A         65  40  40  S1      N/A
#PINE MTN OBS   N/A         60  37  42  CALM    N/A
#SENECA         N/A         65  N/A N/A CALM    N/A
#SENECA 9NW     N/A         63  42  46  CALM    29.99F
$$

ORZ049-211810-
GRANDE RONDE VALLEY

CITY            SKY/WX      TMP DP  RH  WIND    PRES   REMARKS
LA GRANDE       SUNNY       66  39  37  CALM    30.16F
#COVE           N/A         66  47  50  N2      30.17F
#COVE SCHOOL    N/A         68  44  42  CALM    30.16F
#COVE 6NW       N/A         67  42  40  CALM    30.07F
#ELGIN 3N       N/A         70  42  36  S3      30.12S
#ELGIN 1E       N/A         66  40  38  CALM    N/A
#IMBLER SCHOOL  N/A         64  40  41  CALM    30.11S
#ISLAND CITY 4N N/A         65  56  73  SW1     30.16F
#LA GRANDE-LEFFEN/A         73  44  35  S2      30.14F
#UNION 1S       N/A         68  43  40  N1      30.05S
$$

ORZ050-211810-
WALLOWA COUNTY

CITY            SKY/WX      TMP DP  RH  WIND    PRES   REMARKS
JOSEPH AIRPORT  SUNNY       68  36  31  N3      30.21R
#ENTERPRISE HS  N/A         67  44  43  CALM    29.93F
#IMNAHA SCHOOL  N/A         75  39  27  CALM    30.09F
#IMNAHA 10S     N/A         74  40  29  NE2     30.12F
#JOSEPH         N/A         64  41  43  N3      30.11R
#JOSEPH 3N      N/A         64  39  40  NW1     30.19S
#JOSEPH 3W      N/A         67  48  50  CALM    30.02S
#LOSTINE        N/A         65  43  45  CALM    29.87S
#LOSTINE 3SE    N/A         67  41  39  E3      30.22F
#MT HOWARD 8000 N/A         55  39  55  CALM    30.36S
#PROMISE 1S     N/A         66  43  43  CALM    30.11F
#WALLOWA LAKE   N/A         67  41  39  NW1     30.22S
#WALLOWA SCHOOL N/A         66  43  43  CALM    30.12F



$$



USA.gov is the U.S. government's official web portal to all federal, state and local government web resources and services.